Zurück zum Katalog

STARLINK-11467

AktivKommunikationVLEO
NORAD 62068·PAYLOAD·🇺🇸 United States

Gestartet Nov 24, 2024 von Vandenberg Space Force Base

Loading…

Nächste Überflüge (nächste 24 Stunden)

TLE

AktuellSource: CelesTrak SupGP

Epoche: Sep 15, 2026, 03:01 UTC

1 62068C 24217M   26258.12618056 -.00074687  00000+0 -61493-3 0  2587
2 62068  53.1576 217.3053 0001219  89.0895  67.3120 15.69757987    18

Verfolge STARLINK-11467 in Echtzeit mit AllMySat

Download on the App Store